Baton Rouge, LA

2:25 AM CST on November 21, 2017 (GMT -0600)
Baton Rouge Metro-Ryan

Weather History for KBTR - March, 2013

Change the Weather History Date:

Tuesday, March 12, 2013

  Actual Average Record
Temperature  
Mean Temperature 53 °F 61 °F  
Max Temperature 68 °F 72 °F 87 °F (1940)
Min Temperature 37 °F 50 °F 29 °F (1996)
Degree Days  
Heating Degree Days 12 6  
Month to date heating degree days 149 83  
Since 1 July heating degree days 1321 1418  
Cooling Degree Days 0 2  
Month to date cooling degree days 2 17  
Year to date cooling degree days 27 48  
Growing Degree Days 2 (Base 50)    
Moisture  
Dew Point 36 °F    
Average Humidity 61    
Maximum Humidity 92    
Minimum Humidity 29    
Precipitation  
Precipitation 0.00 in 0.14 in 1.90 in (1912)
Month to date precipitation 2.34 1.77  
Year to date precipitation 24.38 12.53  
Snow  
Snow 0.00 in - - ()
Month to date snowfall 0.0  
Since 1 July snowfall 0.0  
Snow Depth 0.00 in    
Sea Level Pressure  
Sea Level Pressure 30.14 in    
Wind  
Wind Speed 3 mph (NW)    
Max Wind Speed 13 mph    
Max Gust Speed 22 mph    
Visibility 10 miles    
Events      
T = Trace of Precipitation, MM = Missing Value Source: NWS Daily Summary

Daily Weather History Graph

Daily Weather History Graph

Search for Another Location

Airport or City:

Trip Planner

Search our weather history database for the weather conditions in past years. The results will help you decide how hot, cold, wet, or windy it might be!

Date:

Astronomy

Mar. 12, 2013 Rise Set
Actual Time 7:17 AM CDT 7:11 PM CDT
Civil Twilight 6:53 AM CDT 7:35 PM CDT
Nautical Twilight 6:25 AM CDT 8:02 PM CDT
Astronomical Twilight 5:58 AM CDT 8:30 PM CDT
Moon 7:30 AM CDT (3/12) 8:17 PM CDT (3/12)
Length of Visible Light 12h 41m
Length of Day
11h 53m
New Moon, 1% of the Moon is Illuminated
Mar 12
New Moon
Mar 19
First Quarter
Mar 27
Full
Apr 2
Last Quarter
Apr 10
New

Hourly Weather History & Observations

Time (CDT) Temp. Dew Point Humidity Pressure Visibility Wind Dir Wind Speed Gust Speed Precip Events Conditions
12:53 AM 45.0 °F 36.0 °F 71% 30.06 in 10.0 mi Calm Calm - N/A   Clear
1:53 AM 42.1 °F 37.9 °F 85% 30.07 in 10.0 mi Calm Calm - N/A   Clear
2:53 AM 43.0 °F 36.0 °F 76% 30.07 in 10.0 mi Calm Calm - N/A   Clear
3:53 AM 41.0 °F 37.0 °F 86% 30.07 in 10.0 mi Calm Calm - N/A   Clear
4:53 AM 39.9 °F 37.0 °F 89% 30.08 in 10.0 mi Calm Calm - N/A   Clear
5:53 AM 39.0 °F 36.0 °F 89% 30.09 in 10.0 mi Calm Calm - N/A   Clear
6:53 AM 37.9 °F 36.0 °F 93% 30.10 in 10.0 mi Calm Calm - N/A   Clear
7:53 AM 39.0 °F 36.0 °F 89% 30.14 in 10.0 mi Calm Calm - N/A   Clear
8:53 AM 48.0 °F 36.0 °F 63% 30.17 in 10.0 mi NNE 3.5 mph - N/A   Clear
9:53 AM 52.0 °F 34.0 °F 50% 30.18 in 10.0 mi NE 4.6 mph - N/A   Clear
10:53 AM 55.9 °F 33.1 °F 42% 30.19 in 10.0 mi North 5.8 mph - N/A   Clear
11:53 AM 59.0 °F 33.1 °F 38% 30.19 in 10.0 mi Variable 4.6 mph - N/A   Clear
12:53 PM 62.1 °F 34.0 °F 35% 30.18 in 10.0 mi Variable 4.6 mph - N/A   Clear
1:53 PM 63.0 °F 35.1 °F 35% 30.16 in 10.0 mi Variable 5.8 mph - N/A   Clear
2:53 PM 66.0 °F 34.0 °F 30% 30.13 in 10.0 mi NNW 10.4 mph - N/A   Clear
3:53 PM 66.0 °F 36.0 °F 33% 30.12 in 10.0 mi Calm Calm - N/A   Clear
4:53 PM 66.9 °F 35.1 °F 31% 30.13 in 10.0 mi WNW 10.4 mph - N/A   Clear
5:53 PM 64.9 °F 33.1 °F 31% 30.12 in 10.0 mi West 10.4 mph - N/A   Clear
6:53 PM 61.0 °F 36.0 °F 39% 30.15 in 10.0 mi West 5.8 mph - N/A   Clear
7:53 PM 59.0 °F 34.0 °F 39% 30.17 in 10.0 mi Calm Calm - N/A   Clear
8:53 PM 55.9 °F 36.0 °F 47% 30.20 in 10.0 mi NW 3.5 mph - N/A   Clear
9:53 PM 53.1 °F 37.0 °F 55% 30.22 in 10.0 mi Calm Calm - N/A   Clear
10:53 PM 50.0 °F 42.1 °F 74% 30.23 in 10.0 mi Calm Calm - N/A   Clear
11:53 PM 46.9 °F 42.1 °F 83% 30.23 in 10.0 mi Calm Calm - N/A   Clear